Location: Presov
(49.0000°N, 21.2500°E)
Time: 07:11:32
(UTC+02:00)

Transit 2A Rocket - Pass Details

Date: 20 April 2021
Orbit: 594 x 909 km, 66.7° (Epoch: 07 May)

Event Time Altitude Azimuth Distance (km) Brightness Sun altitude
Rises 14:30:56 0° 164° (SSE) 2,953 8.3 45.5°
Reaches altitude 10° 14:34:17 10° 138° (SE) 1,997 7.3 45.1°
Maximum altitude 14:36:30 14° 108° (ESE) 1,743 6.8 44.9°
Drops below altitude 10° 14:38:41 10° 78° (ENE) 1,956 6.9 44.6°
Sets 14:41:54 0° 52° (NE) 2,845 7.5 44.3°
